Weather History for La Junta, CO

Change the Weather History Date:

Thursday, February 21, 2013

  Actual Average Record
Temperature  
Mean Temperature 26 °F 36 °F  
Max Temperature 35 °F 51 °F 75 °F (1982)
Min Temperature 16 °F 22 °F -1 °F (1955)
Degree Days  
Heating Degree Days 39 28  
Month to date heating degree days 587 654  
Since 1 July heating degree days 3532 3911  
Cooling Degree Days 0 0  
Month to date cooling degree days 0 0  
Year to date cooling degree days 0 0  
Moisture  
Dew Point 20 °F    
Average Humidity 75    
Maximum Humidity 92    
Minimum Humidity 58    
Precipitation  
Precipitation 0.01 in 0.01 in 0.02 in (1968)
Month to date precipitation 0.09 0.25  
Year to date precipitation 0.11 0.54  
Sea Level Pressure  
Sea Level Pressure 29.76 in    
Wind  
Wind Speed 13 mph (NE)    
Max Wind Speed 28 mph    
Max Gust Speed 33 mph    
Visibility 8 miles    
Events Snow    
T = Trace of Precipitation, MM = Missing Value Source: NWS Daily Summary

Daily Weather History Graph

Daily Weather History Graph

Search for Another Location

Airport:

Trip Planner

Search our weather history database for the weather conditions in past years. The results will help you decide how hot, cold, wet, or windy it might be!

Date:

Astronomy

Feb. 21, 2013 Rise Set
Actual Time 6:36 AM MST 5:39 PM MST
Civil Twilight 6:09 AM MST 6:06 PM MST
Nautical Twilight 5:38 AM MST 6:36 PM MST
Astronomical Twilight 5:08 AM MST 7:07 PM MST
Moon 1:58 PM MST (2/21) 3:39 AM MST (2/21)
Length of Visible Light 11h 56m
Length of Day
11h 03m
Waxing Gibbous, 84% of the Moon is Illuminated
Feb 21
Waxing Gibbous
Feb 25
Full
Mar 4
Last Quarter
Mar 11
New
Mar 19
First Quarter

Hourly Weather History & Observations

Time (MST) Temp. Windchill Dew Point Humidity Pressure Visibility Wind Dir Wind Speed Gust Speed Precip Events Conditions
12:14 AM 35.6 °F 28.0 °F 26.6 °F 70% 29.59 in 10.0 mi SE 10.4 mph - N/A   Overcast
12:53 AM 34.0 °F 27.2 °F 27.0 °F 75% 29.56 in 10.0 mi East 8.1 mph - N/A   Overcast
1:53 AM 34.0 °F 25.0 °F 28.0 °F 79% 29.55 in 10.0 mi East 12.7 mph - N/A   Overcast
2:53 AM 33.1 °F 22.2 °F 28.0 °F 82% 29.56 in 10.0 mi ESE 17.3 mph - N/A   Overcast
3:05 AM 33.8 °F 23.5 °F 28.4 °F 81% 29.57 in 10.0 mi ESE 16.1 mph - N/A   Overcast
3:13 AM 33.8 °F 23.9 °F 28.4 °F 81% 29.56 in 10.0 mi ESE 15.0 mph - N/A   Overcast
3:38 AM 32.0 °F 19.5 °F 26.6 °F 80% 29.57 in 10.0 mi ESE 21.9 mph 25.3 mph N/A   Overcast
4:53 AM 30.9 °F 20.2 °F 27.0 °F 85% 29.59 in 9.0 mi East 15.0 mph - 0.00 in   Overcast
5:53 AM 30.0 °F 18.7 °F 27.0 °F 88% 29.60 in 10.0 mi ESE 16.1 mph - 0.00 in   Overcast
6:53 AM 28.9 °F 17.7 °F 26.1 °F 89% 29.65 in 10.0 mi ENE 15.0 mph - N/A   Overcast
7:26 AM 26.6 °F 10.8 °F 24.8 °F 93% 29.66 in 1.8 mi NE 27.6 mph 32.2 mph 0.00 in Snow Light Snow
7:40 AM 21.2 °F 4.5 °F 19.4 °F 93% 29.68 in 2.5 mi NE 24.2 mph - 0.00 in Snow Light Snow
7:47 AM 23.0 °F 6.9 °F 19.4 °F 86% 29.69 in 1.8 mi NNE 24.2 mph 29.9 mph 0.00 in Snow Light Snow
7:53 AM 21.0 °F 3.9 °F 18.0 °F 88% 29.74 in 2.0 mi NNE 25.3 mph 33.4 mph 0.00 in Snow Light Snow
8:12 AM 21.2 °F 5.2 °F 17.6 °F 86% 29.71 in 3.0 mi NE 21.9 mph - 0.00 in Snow Light Snow
8:19 AM 21.2 °F 3.9 °F 17.6 °F 86% 29.71 in 4.0 mi NNE 26.5 mph 32.2 mph 0.00 in Snow Light Snow
8:53 AM 19.9 °F 3.5 °F 15.1 °F 81% 29.78 in 10.0 mi NNE 21.9 mph - 0.00 in   Overcast
9:32 AM 19.4 °F 5.5 °F 15.8 °F 86% 29.76 in 9.0 mi North 15.0 mph - 0.00 in   Overcast
9:53 AM 19.9 °F 5.7 °F 14.0 °F 78% 29.82 in 9.0 mi NNE 16.1 mph - 0.00 in   Overcast
10:50 AM 23.0 °F 11.1 °F 15.8 °F 74% 29.78 in 4.0 mi NNE 12.7 mph - 0.00 in Snow Light Snow
10:53 AM 23.0 °F 11.7 °F 16.0 °F 74% 29.83 in 4.0 mi NNE 11.5 mph - 0.00 in Snow Light Snow
11:26 AM 24.8 °F 14.0 °F 17.6 °F 74% 29.77 in 2.0 mi North 11.5 mph - 0.01 in Snow Light Snow
11:53 AM 24.1 °F 15.2 °F 18.0 °F 77% 29.81 in 3.0 mi North 8.1 mph - 0.01 in Snow Light Snow
12:42 PM 26.6 °F 15.7 °F 17.6 °F 69% 29.76 in 10.0 mi North 12.7 mph - 0.00 in   Overcast
12:53 PM 26.1 °F 14.5 °F 18.0 °F 71% 29.80 in 10.0 mi North 13.8 mph - 0.00 in   Overcast
1:53 PM 28.0 °F 17.0 °F 17.1 °F 63% 29.79 in 10.0 mi NNE 13.8 mph 18.4 mph N/A   Overcast
2:53 PM 28.9 °F 17.3 °F 17.1 °F 61% 29.80 in 10.0 mi NNE 16.1 mph - N/A   Overcast
3:53 PM 28.0 °F 17.0 °F 16.0 °F 61% 29.83 in 10.0 mi NNE 13.8 mph - N/A   Overcast
4:53 PM 26.1 °F 15.0 °F 15.1 °F 63% 29.85 in 10.0 mi NNE 12.7 mph - N/A   Overcast
5:53 PM 23.0 °F 11.7 °F 14.0 °F 68% 29.89 in 10.0 mi NNE 11.5 mph - N/A   Mostly Cloudy
6:53 PM 19.9 °F 12.1 °F 16.0 °F 85% 29.94 in 8.0 mi North 5.8 mph - N/A   Mostly Cloudy
7:53 PM 19.9 °F - 15.1 °F 81% 29.98 in 10.0 mi Calm Calm - N/A   Partly Cloudy
8:53 PM 19.0 °F 8.2 °F 14.0 °F 81% 30.01 in 10.0 mi SW 9.2 mph - N/A   Clear
9:53 PM 21.0 °F 13.4 °F 15.1 °F 78% 30.00 in 10.0 mi West 5.8 mph - N/A   Partly Cloudy
10:53 PM 17.1 °F 6.6 °F 12.9 °F 84% 30.00 in 10.0 mi West 8.1 mph - N/A   Clear
11:53 PM 18.0 °F 7.7 °F 15.1 °F 88% 30.00 in 10.0 mi SW 8.1 mph - N/A   Clear